Location: Pardubice
(50.0330°N, 15.7830°E)
Time: 09:09:00
(UTC+02:00)

Tiros 1 despin weight - All Passes

Search period start: 07 October 2024 00:00
Search period end: 17 October 2024 00:00
Orbit: 573 x 615 km, 48.2° (Epoch: 06 October)

Date Brightness Start Highest point End Pass type
(mag) Time Alt. Az. Time Alt. Az. Time Alt. Az.
07 Oct - 00:39:52 10° W 00:43:56 36° SSW 00:48:03 10° SE night (unlit)
07 Oct - 02:22:43 10° WSW 02:24:04 11° SW 02:25:27 10° SSW night (unlit)
07 Oct - 19:46:20 10° SW 19:50:14 33° SSE 19:54:11 10° E visible
07 Oct - 21:26:33 10° WSW 21:30:53 66° S 21:35:16 10° E visible
07 Oct - 23:07:24 10° W 23:11:45 60° SSW 23:16:08 10° ESE night (unlit)
08 Oct - 00:48:35 10° W 00:52:18 27° SSW 00:56:03 10° SSE night (unlit)
08 Oct - 18:15:52 10° S 18:18:21 15° SE 18:20:52 10° ESE daylight
08 Oct - 19:54:28 10° SW 19:58:36 44° SSE 20:02:47 10° E visible
08 Oct - 21:35:02 10° W 21:39:22 70° S 21:43:46 10° E visible
08 Oct - 23:15:56 10° W 23:20:11 50° SSW 23:24:29 10° ESE night (unlit)
09 Oct - 00:57:28 10° W 01:00:34 19° SW 01:03:40 10° S night (unlit)
09 Oct - 18:23:11 10° SSW 18:26:33 22° SE 18:29:56 10° E daylight
09 Oct - 20:02:45 10° WSW 20:06:59 56° SSE 20:11:17 10° E visible
09 Oct - 21:43:29 10° W 21:47:49 69° S 21:52:13 10° ESE visible
09 Oct - 23:24:27 10° W 23:28:32 38° SSW 23:32:40 10° SE night (unlit)
10 Oct - 01:06:55 10° WSW 01:08:42 12° SW 01:10:30 10° SSW night (unlit)
10 Oct - 18:30:58 10° SW 18:34:46 31° SSE 18:38:38 10° E daylight
10 Oct - 20:11:05 10° WSW 20:15:23 65° S 20:19:44 10° E visible
10 Oct - 21:51:55 10° W 21:56:14 62° S 22:00:36 10° ESE visible
10 Oct - 23:33:02 10° W 23:36:48 28° SSW 23:40:36 10° SSE night (unlit)
11 Oct - 17:00:39 10° S 17:02:50 14° SE 17:05:02 10° ESE daylight
11 Oct - 18:38:58 10° SW 18:43:02 42° SSE 18:47:08 10° E visible
11 Oct - 20:19:27 10° W 20:23:46 70° S 20:28:09 10° E visible
11 Oct - 22:00:20 10° W 22:04:35 52° SSW 22:08:52 10° ESE visible
11 Oct - 23:41:46 10° W 23:44:59 20° SW 23:48:13 10° SSE night (unlit)
12 Oct - 17:07:43 10° SSW 17:10:55 21° SE 17:14:08 10° E daylight
12 Oct - 18:47:06 10° WSW 18:51:19 53° SSE 18:55:34 10° E visible
12 Oct - 20:27:48 10° W 20:32:07 69° S 20:36:30 10° E visible
12 Oct - 22:08:45 10° W 22:12:51 40° SSW 22:17:00 10° SE visible
12 Oct - 23:50:55 10° WSW 23:53:03 13° SW 23:55:10 10° SSW night (unlit)
13 Oct - 17:15:19 10° SSW 17:19:01 29° SSE 17:22:47 10° E daylight
13 Oct - 18:55:20 10° WSW 18:59:36 63° S 19:03:55 10° E visible
13 Oct - 20:36:08 10° W 20:40:26 64° S 20:44:47 10° ESE visible
13 Oct - 22:17:12 10° W 22:21:01 30° SSW 22:24:53 10° SSE visible
14 Oct - 15:45:14 10° SSE 15:47:02 12° SE 15:48:50 10° ESE daylight
14 Oct - 17:23:10 10° SW 17:27:10 39° SSE 17:31:13 10° E daylight
14 Oct - 19:03:35 10° WSW 19:07:52 69° S 19:12:13 10° E visible
14 Oct - 20:44:27 10° W 20:48:41 54° SSW 20:52:58 10° ESE visible
14 Oct - 22:25:47 10° W 22:29:07 21° SW 22:32:28 10° SSE visible
15 Oct - 15:51:58 10° S 15:55:00 19° SE 15:58:02 10° E daylight
15 Oct - 17:31:10 10° WSW 17:35:20 50° SSE 17:39:33 10° E daylight
15 Oct - 19:11:50 10° W 19:16:08 70° S 19:20:28 10° E visible
15 Oct - 20:52:45 10° W 20:56:51 43° SSW 21:01:01 10° SE visible
15 Oct - 22:34:42 10° WSW 22:37:06 14° SW 22:39:30 10° S visible
16 Oct - 15:59:22 10° SSW 16:03:00 27° SSE 16:06:38 10° E daylight
16 Oct - 17:39:17 10° WSW 17:43:31 61° S 17:47:47 10° E daylight
16 Oct - 19:20:04 10° W 19:24:21 65° S 19:28:40 10° ESE visible
16 Oct - 21:01:05 10° W 21:04:58 32° SSW 21:08:51 10° SE visible
